When you browse on this site, cookies collect data to enhance your experience and personalize the content and advertising you see.
Visit our Privacy Policy to learn more. By continuing to use the site, you agree to this use of cookies and data.
  • In United Kingdom
  • List of Countries
  • For 7 days
  • Water Temperature
  • Satellite Maps
  • Weather Map
  • Weather Widgets
  • user-avatar
    Login

    Hourly Weather Mutare

    Today, 21 May, Tuesday

    Time Temperature Precipitation Wind Pressure Humidity
    00:00 +11°C° 0 mm 0 mps 653 mmHg 84%
    01:00 +11°C° 0 mm 0 mps 653 mmHg 86%
    02:00 +10°C° 0 mm 0 mps 653 mmHg 88%
    03:00 +10°C° 0 mm 0 mps 653 mmHg 89%
    04:00 +10°C° 0 mm 0 mps 653 mmHg 90%
    05:00 +11°C° 0 mm 1 mps 653 mmHg 90%
    06:00 +12°C° 0 mm 0 mps 654 mmHg 80%
    07:00 +14°C° 0 mm 0 mps 655 mmHg 70%
    08:00 +16°C° 0 mm 0 mps 656 mmHg 60%
    09:00 +19°C° 0 mm 0 mps 657 mmHg 50%
    10:00 +22°C° 0 mm 0 mps 658 mmHg 39%
    11:00 +25°C° 0 mm 0 mps 658 mmHg 28%
    12:00 +27°C° 0 mm 1 mps 658 mmHg 26%
    13:00 +27°C° 0 mm 1 mps 657 mmHg 24%
    14:00 +27°C° 0 mm 1 mps 657 mmHg 22%
    15:00 +25°C° 0 mm 1 mps 656 mmHg 28%
    16:00 +23°C° 0 mm 1 mps 655 mmHg 34%
    17:00 +21°C° 0 mm 1 mps 655 mmHg 39%
    18:00 +19°C° 0 mm 1 mps 655 mmHg 48%
    19:00 +16°C° 0 mm 1 mps 655 mmHg 57%
    20:00 +14°C° 0 mm 1 mps 655 mmHg 65%
    21:00 +14°C° 0 mm 1 mps 655 mmHg 70%
    22:00 +13°C° 0 mm 1 mps 655 mmHg 75%
    23:00 +13°C° 0 mm 1 mps 655 mmHg 80%

    Tomorrow, 22 May, Wednesday

    Time Temperature Precipitation Wind Pressure Humidity
    00:00 +12°C° 0 mm 1 mps 655 mmHg 81%
    01:00 +12°C° 0 mm 1 mps 655 mmHg 83%
    02:00 +12°C° 0 mm 1 mps 655 mmHg 85%
    03:00 +11°C° 0 mm 1 mps 654 mmHg 85%
    04:00 +11°C° 0 mm 1 mps 654 mmHg 85%
    05:00 +11°C° 0 mm 1 mps 654 mmHg 85%
    06:00 +13°C° 0 mm 1 mps 655 mmHg 76%
    07:00 +15°C° 0 mm 1 mps 656 mmHg 66%
    08:00 +18°C° 0 mm 1 mps 658 mmHg 57%
    09:00 +20°C° 0 mm 1 mps 658 mmHg 50%
    10:00 +22°C° 0 mm 1 mps 659 mmHg 43%
    11:00 +24°C° 0 mm 2 mps 659 mmHg 36%
    12:00 +24°C° 0 mm 2 mps 658 mmHg 34%
    13:00 +25°C° 0 mm 2 mps 658 mmHg 33%
    14:00 +25°C° 0 mm 3 mps 657 mmHg 31%
    15:00 +23°C° 0 mm 2 mps 657 mmHg 37%
    16:00 +21°C° 0 mm 2 mps 656 mmHg 43%
    17:00 +19°C° 0 mm 2 mps 656 mmHg 49%
    18:00 +17°C° 0 mm 2 mps 656 mmHg 60%
    19:00 +15°C° 0 mm 1 mps 655 mmHg 71%
    20:00 +13°C° 0 mm 1 mps 655 mmHg 81%
    21:00 +13°C° 0 mm 1 mps 655 mmHg 85%
    22:00 +12°C° 0 mm 1 mps 655 mmHg 89%
    23:00 +12°C° 0 mm 1 mps 655 mmHg 93%

    Day after tomorrow, 23 May, Thursday

    Time Temperature Precipitation Wind Pressure Humidity
    00:00 +11°C° 0 mm 1 mps 655 mmHg 94%
    01:00 +11°C° 0 mm 1 mps 655 mmHg 94%
    02:00 +10°C° 0 mm 0 mps 655 mmHg 95%
    03:00 +10°C° 0 mm 0 mps 654 mmHg 95%
    04:00 +9°C° 0 mm 0 mps 654 mmHg 95%
    05:00 +9°C° 0 mm 0 mps 654 mmHg 95%
    06:00 +11°C° 0 mm 0 mps 655 mmHg 88%
    07:00 +13°C° 0 mm 0 mps 656 mmHg 80%
    08:00 +15°C° 0 mm 0 mps 657 mmHg 73%
    09:00 +19°C° 0 mm 1 mps 658 mmHg 60%
    10:00 +21°C° 0 mm 1 mps 658 mmHg 48%
    11:00 +24°C° 0 mm 2 mps 659 mmHg 35%
    12:00 +24°C° 0 mm 2 mps 658 mmHg 34%
    13:00 +25°C° 0 mm 2 mps 658 mmHg 33%
    14:00 +25°C° 0 mm 3 mps 657 mmHg 31%
    15:00 +23°C° 0 mm 2 mps 657 mmHg 38%
    16:00 +21°C° 0 mm 2 mps 656 mmHg 45%
    17:00 +19°C° 0 mm 2 mps 656 mmHg 52%
    18:00 +17°C° 0 mm 2 mps 656 mmHg 63%
    19:00 +15°C° 0 mm 1 mps 656 mmHg 73%
    20:00 +13°C° 0 mm 1 mps 656 mmHg 84%
    21:00 +13°C° 0 mm 1 mps 656 mmHg 87%
    22:00 +12°C° 0 mm 1 mps 656 mmHg 89%
    23:00 +12°C° 0 mm 1 mps 656 mmHg 92%

    24 May, Friday

    Time Temperature Precipitation Wind Pressure Humidity
    00:00 +12°C° 0 mm 1 mps 656 mmHg 93%
    01:00 +11°C° 0 mm 1 mps 655 mmHg 94%
    02:00 +11°C° 0 mm 1 mps 655 mmHg 94%
    03:00 +11°C° 0 mm 1 mps 655 mmHg 95%
    04:00 +11°C° 0 mm 1 mps 655 mmHg 95%
    05:00 +11°C° 0 mm 1 mps 655 mmHg 95%
    06:00 +12°C° 0 mm 1 mps 656 mmHg 87%
    07:00 +14°C° 0 mm 1 mps 657 mmHg 79%
    08:00 +16°C° 0 mm 1 mps 658 mmHg 72%
    09:00 +19°C° 0 mm 1 mps 659 mmHg 62%
    10:00 +20°C° 0 mm 2 mps 659 mmHg 52%
    11:00 +22°C° 0 mm 3 mps 659 mmHg 42%
    12:00 +22°C° 0 mm 3 mps 659 mmHg 41%
    13:00 +24°C° 0 mm 3 mps 658 mmHg 39%
    14:00 +24°C° 0 mm 3 mps 658 mmHg 38%
    15:00 +22°C° 0 mm 3 mps 657 mmHg 43%
    16:00 +20°C° 0 mm 3 mps 657 mmHg 49%
    17:00 +18°C° 0 mm 2 mps 657 mmHg 54%
    18:00 +16°C° 0 mm 2 mps 657 mmHg 66%
    19:00 +14°C° 0 mm 2 mps 657 mmHg 78%
    20:00 +12°C° 0 mm 1 mps 657 mmHg 89%
    21:00 +12°C° 0 mm 1 mps 657 mmHg 92%
    22:00 +11°C° 0 mm 1 mps 656 mmHg 94%
    23:00 +11°C° 0 mm 1 mps 656 mmHg 96%

    25 May, Saturday

    Time Temperature Precipitation Wind Pressure Humidity
    00:00 +11°C° 0 mm 1 mps 656 mmHg 96%
    01:00 +11°C° 0 mm 1 mps 656 mmHg 97%
    02:00 +11°C° 0 mm 1 mps 656 mmHg 97%
    03:00 +11°C° 0 mm 1 mps 656 mmHg 97%
    04:00 +10°C° 0 mm 0 mps 656 mmHg 97%
    05:00 +11°C° 0 mm 0 mps 656 mmHg 97%
    06:00 +12°C° 0 mm 0 mps 657 mmHg 92%
    07:00 +13°C° 0 mm 0 mps 658 mmHg 87%
    08:00 +14°C° 0 mm 0 mps 658 mmHg 82%
    09:00 +18°C° 0 mm 1 mps 659 mmHg 71%
    10:00 +20°C° 0 mm 1 mps 659 mmHg 61%
    11:00 +22°C° 0 mm 1 mps 659 mmHg 50%
    12:00 +21°C° 0 mm 2 mps 659 mmHg 49%
    13:00 +23°C° 0 mm 2 mps 658 mmHg 48%
    14:00 +23°C° 0 mm 2 mps 657 mmHg 47%
    15:00 +21°C° 0 mm 2 mps 657 mmHg 52%
    16:00 +20°C° 0 mm 1 mps 657 mmHg 57%
    17:00 +19°C° 0 mm 1 mps 656 mmHg 62%
    18:00 +18°C° 0 mm 1 mps 656 mmHg 70%
    19:00 +15°C° 0 mm 1 mps 656 mmHg 79%
    20:00 +13°C° 0 mm 1 mps 656 mmHg 88%
    21:00 +13°C° 0 mm 1 mps 656 mmHg 90%
    22:00 +11°C° 0 mm 0 mps 656 mmHg 93%
    23:00 +11°C° 0 mm 0 mps 656 mmHg 95%

    26 May, Sunday

    Time Temperature Precipitation Wind Pressure Humidity
    00:00 +11°C° 0 mm 0 mps 656 mmHg 95%
    01:00 +10°C° 0 mm 0 mps 655 mmHg 96%
    02:00 +10°C° 0 mm 0 mps 655 mmHg 96%
    03:00 +10°C° 0 mm 0 mps 655 mmHg 96%
    04:00 +9°C° 0 mm 0 mps 655 mmHg 96%
    05:00 +9°C° 0 mm 0 mps 655 mmHg 96%
    06:00 +11°C° 0 mm 0 mps 656 mmHg 88%
    07:00 +13°C° 0 mm 0 mps 657 mmHg 81%
    08:00 +14°C° 0 mm 0 mps 657 mmHg 73%
    09:00 +17°C° 0 mm 0 mps 658 mmHg 62%
    10:00 +21°C° 0 mm 1 mps 658 mmHg 51%
    11:00 +24°C° 0 mm 1 mps 659 mmHg 39%
    12:00 +24°C° 0 mm 1 mps 658 mmHg 38%
    13:00 +24°C° 0 mm 1 mps 657 mmHg 38%
    14:00 +24°C° 0 mm 1 mps 657 mmHg 37%
    15:00 +23°C° 0.1 mm 1 mps 656 mmHg 45%
    16:00 +21°C° 0.1 mm 1 mps 656 mmHg 54%
    17:00 +19°C° 0.1 mm 1 mps 655 mmHg 62%
    18:00 +18°C° 0.1 mm 1 mps 655 mmHg 70%
    19:00 +15°C° 0.1 mm 1 mps 655 mmHg 78%
    20:00 +13°C° 0.1 mm 1 mps 655 mmHg 86%
    21:00 +13°C° 0 mm 1 mps 655 mmHg 88%
    22:00 +13°C° 0 mm 1 mps 655 mmHg 91%
    23:00 +11°C° 0 mm 0 mps 655 mmHg 93%
    Show more